Find Starlink 30246

NORAD ID: 57615 Int'l Des: 2023-119 Owner: SPXS Country: US Constellation: starlink operational
LEOCIRCULAR

当前视图

正在加载3D地球...

About Starlink 30246

Starlink 30246 (NORAD 57615) is a starlink constellation satellite (v2 mini) launched Aug 11, 2023 by SPXS of US. It operates in LEO, CIRCULAR orbit with a mass of 730.00 kg.

即将过境

Passes for default location (London). Set your location on the main map for personalized predictions.

高度历史

Loading altitude history...

两行轨道根数

1 57615U 23119P 26224.52256806 .00021895 00000-0 74541-3 0 9999
2 57615 43.0001 281.1014 0004014 10.3514 349.7421 15.30000199166926
Epoch: Aug 12, 2026 • Age: 11 hours

当前状态

高度 480.0 km
远地点 / 近地点 N/A
速度 7.63 km/s
星下点 -24.69°S, 62.42°W
发射日期 Aug 11, 2023
运行时间 3 years
类型 internet

技术详情

分类 Payload
质量 730.00 kg
干质量 700.00 kg
总质量 730.00 kg
长度 0.30 m
直径 4.10 m
跨度 29.00 m
形状 Box + pan
制造商 SPXS
平台类型 Starlink V2M
阶段状态 In Orbit
所有者/国家 SPXS/US

Most Searched